Time,TemperatureF,DewpointF,PressureIn,WindDirection,WindDirectionDegrees,WindSpeedMPH,WindSpeedGustMPH,Humidity,HourlyPrecipIn,Conditions,Clouds,dailyrainin,SoftwareType,DateUTC
2013-08-02 00:22:00,87.0,-99.9,-100.00,SE,126,1.0,1.0,-999,-99.99,,,-99.99,,2013-08-02 06:22:00,
2013-08-02 00:33:00,87.0,-99.9,-100.00,SE,126,1.0,1.0,-999,-99.99,,,-99.99,,2013-08-02 06:33:00,
2013-08-02 00:50:00,86.0,-99.9,-100.00,SSW,208,5.0,7.0,-999,-99.99,,,-99.99,,2013-08-02 06:50:00,
2013-08-02 01:44:00,86.0,-99.9,-100.00,SSW,208,5.0,7.0,-999,-99.99,,,-99.99,,2013-08-02 07:44:00,
2013-08-02 02:54:00,84.0,-99.9,-100.00,SW,226,3.0,6.0,-999,-99.99,,,-99.99,,2013-08-02 08:54:00,
2013-08-02 03:02:00,84.0,-99.9,-100.00,SW,226,3.0,6.0,-999,-99.99,,,-99.99,,2013-08-02 09:02:00,
2013-08-02 05:02:00,80.0,-99.9,-100.00,SW,215,3.0,6.0,-999,-99.99,,,-99.99,,2013-08-02 11:02:00,
2013-08-02 05:12:00,80.0,-99.9,-100.00,SW,215,3.0,6.0,-999,-99.99,,,-99.99,,2013-08-02 11:12:00,
2013-08-02 05:23:00,80.0,-99.9,-100.00,SW,215,3.0,6.0,-999,-99.99,,,-99.99,,2013-08-02 11:23:00,
2013-08-02 05:52:00,79.0,-99.9,-100.00,SW,233,3.0,5.0,-999,-99.99,,,-99.99,,2013-08-02 11:52:00,
2013-08-02 06:02:00,79.0,-99.9,-100.00,SW,233,3.0,5.0,-999,-99.99,,,-99.99,,2013-08-02 12:02:00,
2013-08-02 07:03:00,80.0,-99.9,-100.00,SE,146,0.0,3.0,-999,-99.99,,,-99.99,,2013-08-02 13:03:00,
2013-08-02 07:12:00,80.0,-99.9,-100.00,SE,146,0.0,3.0,-999,-99.99,,,-99.99,,2013-08-02 13:12:00,
2013-08-02 07:53:00,83.0,-99.9,-100.00,SW,225,6.0,6.0,-999,-99.99,,,-99.99,,2013-08-02 13:53:00,
2013-08-02 08:02:00,83.0,-99.9,-100.00,SW,225,6.0,6.0,-999,-99.99,,,-99.99,,2013-08-02 14:02:00,
2013-08-02 09:10:00,89.0,-99.9,-100.00,East,85,1.0,3.0,-999,-99.99,,,-99.99,,2013-08-02 15:10:00,
2013-08-02 09:53:00,89.0,-99.9,-100.00,East,85,1.0,3.0,-999,-99.99,,,-99.99,,2013-08-02 15:53:00,
2013-08-02 10:02:00,89.0,-99.9,-100.00,East,85,1.0,3.0,-999,-99.99,,,-99.99,,2013-08-02 16:02:00,
2013-08-02 10:53:00,93.0,-99.9,-100.00,NNE,28,1.0,1.0,-999,-99.99,,,-99.99,,2013-08-02 16:53:00,
2013-08-02 11:12:00,92.0,-99.9,-100.00,West,268,1.0,5.0,-999,-99.99,,,-99.99,,2013-08-02 17:12:00,
2013-08-02 11:43:00,94.0,-99.9,-100.00,NE,42,3.0,7.0,-999,-99.99,,,-99.99,,2013-08-02 17:43:00,
2013-08-02 11:52:00,94.0,-99.9,-100.00,NE,42,3.0,7.0,-999,-99.99,,,-99.99,,2013-08-02 17:52:00,
2013-08-02 12:50:00,99.0,-99.9,-100.00,SSW,198,3.0,6.0,-999,-99.99,,,-99.99,,2013-08-02 18:50:00,
2013-08-02 13:40:00,98.0,-99.9,-100.00,North,358,3.0,6.0,-999,-99.99,,,-99.99,,2013-08-02 19:40:00,
2013-08-02 13:43:00,99.0,-99.9,-100.00,SSW,198,3.0,6.0,-999,-99.99,,,-99.99,,2013-08-02 19:43:00,
2013-08-02 14:12:00,95.0,-99.9,-100.00,NNE,18,2.0,4.0,-999,-99.99,,,-99.99,,2013-08-02 20:12:00,
2013-08-02 14:23:00,98.0,-99.9,-100.00,North,358,3.0,6.0,-999,-99.99,,,-99.99,,2013-08-02 20:23:00,
2013-08-02 14:30:00,95.0,-99.9,-100.00,North,353,3.0,3.0,-999,-99.99,,,-99.99,,2013-08-02 20:30:00,
2013-08-02 14:33:00,98.0,-99.9,-100.00,North,358,3.0,6.0,-999,-99.99,,,-99.99,,2013-08-02 20:33:00,
2013-08-02 15:22:00,95.0,-99.9,-100.00,North,353,3.0,3.0,-999,-99.99,,,-99.99,,2013-08-02 21:22:00,
2013-08-02 16:30:00,99.0,-99.9,-100.00,ENE,75,3.0,5.0,-999,-99.99,,,-99.99,,2013-08-02 22:30:00,
2013-08-02 17:22:00,99.0,-99.9,-100.00,ENE,75,3.0,5.0,-999,-99.99,,,-99.99,,2013-08-02 23:22:00,
2013-08-02 19:22:00,94.0,-99.9,-100.00,WSW,251,2.0,5.0,-999,-99.99,,,-99.99,,2013-08-03 01:22:00,
2013-08-02 19:33:00,94.0,-99.9,-100.00,WSW,251,2.0,5.0,-999,-99.99,,,-99.99,,2013-08-03 01:33:00,
2013-08-02 21:10:00,93.0,-99.9,-100.00,WNW,291,0.0,2.0,-999,-99.99,,,-99.99,,2013-08-03 03:10:00,
2013-08-02 21:12:00,92.0,-99.9,-100.00,NE,38,2.0,6.0,-999,-99.99,,,-99.99,,2013-08-03 03:12:00,
2013-08-02 21:43:00,93.0,-99.9,-100.00,NE,36,1.0,4.0,-999,-99.99,,,-99.99,,2013-08-03 03:43:00,
2013-08-02 21:53:00,93.0,-99.9,-100.00,WNW,291,0.0,2.0,-999,-99.99,,,-99.99,,2013-08-03 03:53:00,
2013-08-02 22:02:00,93.0,-99.9,-100.00,WNW,291,0.0,2.0,-999,-99.99,,,-99.99,,2013-08-03 04:02:00,
2013-08-02 22:53:00,91.0,-99.9,-100.00,West,274,3.0,7.0,-999,-99.99,,,-99.99,,2013-08-03 04:53:00,
2013-08-02 23:02:00,91.0,-99.9,-100.00,West,274,3.0,7.0,-999,-99.99,,,-99.99,,2013-08-03 05:02:00,